Wind_Speed
10 10 11 11 11 10 11 11 10 8 8 6 6 7 10 13 16 16 15 15 15 14 13 11 9 6 6 6 6 5 5 6 8 9 10 10 11 12 14 15 16 18 17 17 16 16 15
7 7 6 6 6 7 7 7 7 7 7 7 7 7 10 14 15 15 15 15 15 14 14 13 12 9 9 9 9 9 9 10 11 12 14 13 13 15 16 18 19 20 20 19 19 18 19
3 2 2 3 2 2 2 4 6 7 8 9 10 10 11 12 14 14 15 15 15 15 15 15 14 13 12 12 12 12 12 13 14 14 15 16 16 18 19 21 22 22 22 22 22 21 21
1 1 1 1 1 1 2 3 5 6 8 10 11 11 12 12 13 14 14 14 15 15 16 16 16 16 15 14 14 14 15 15 16 17 18 19 20 21 21 22 23 24 23 24 25 25 24
5 4 4 3 3 3 4 5 5 7 9 10 11 12 13 14 15 15 16 15 16 16 16 17 17 17 16 16 15 16 17 18 19 20 21 22 22 23 24 25 24 26 26 25 27 27 26
8 8 7 7 6 6 6 6 7 7 9 11 12 13 14 15 16 16 17 17 18 18 18 18 18 18 18 17 18 19 20 21 22 22 23 25 25 26 27 27 26 27 28 28 29 31 28
10 11 10 10 10 10 10 9 9 10 11 11 12 14 15 16 17 18 19 19 19 20 20 20 20 20 20 21 21 22 23 24 25 26 27 28 28 28 29 29 29 29 31 30 31 32 31
12 13 13 13 14 14 14 13 13 14 14 15 15 15 16 17 19 20 20 21 23 23 22 24 23 23 24 24 24 26 27 27 28 29 29 29 27 30 30 31 31 32 31 30 31 32 33
15 14 14 15 16 17 16 16 15 17 17 18 19 20 20 20 21 22 23 24 26 27 27 25 27 27 27 26 26 27 29 29 29 29 31 31 30 30 32 33 33 33 32 33 34 33 34
18 19 17 17 17 18 19 18 18 18 19 20 21 22 23 24 25 25 26 27 29 30 31 28 27 27 27 27 27 28 28 28 29 30 31 32 31 33 35 33 34 36 34 36 37 38 38
23 22 22 21 21 21 21 20 20 20 21 22 23 23 24 25 26 27 28 29 29 30 34 27 25 24 24 25 26 27 29 31 31 33 34 33 33 35 35 34 36 37 38 39 41 42 43
29 28 27 26 26 26 25 25 24 24 24 25 25 27 27 27 27 28 29 30 31 32 36 31 31 31 32 32 32 32 32 33 34 35 36 35 36 36 37 38 39 40 42 44 46 45 48
32 32 33 32 32 31 31 31 30 30 29 30 30 30 31 32 32 32 33 34 35 37 36 37 35 36 37 37 37 37 37 36 38 40 40 40 40 39 40 42 42 43 45 49 51 51 52
36 36 36 36 37 37 37 35 36 36 35 35 36 36 36 37 37 38 38 40 41 41 40 40 41 42 43 43 43 43 43 42 41 43 46 46 44 42 43 44 46 48 49 50 53 55 56
34 37 40 40 40 41 41 41 41 41 40 39 40 41 42 42 43 43 44 46 46 46 45 45 47 48 48 48 48 48 47 47 46 45 48 50 49 48 48 49 50 52 52 52 57 59 60
37 42 38 40 44 44 43 43 44 44 45 44 43 44 46 46 47 48 48 48 49 49 50 50 51 52 52 51 52 51 51 51 51 51 51 53 55 54 53 54 54 53 55 57 59 62 65
34 36 40 41 41 44 46 46 46 46 47 48 48 47 49 50 51 52 53 52 53 53 55 56 55 56 56 57 57 56 55 55 56 56 56 56 57 56 57 56 56 59 61 62 63 67 67
33 34 37 40 45 42 43 45 48 50 50 51 51 51 51 53 55 55 55 56 57 58 58 60 60 60 61 61 62 62 60 58 59 59 60 61 62 60 58 60 63 66 66 66 66 66 66
33 34 35 36 40 41 42 47 49 49 47 46 49 50 50 51 55 57 58 58 60 61 61 62 62 64 64 65 66 64 64 61 61 60 60 60 64 66 66 68 67 67 65 63 63 64 66
28 28 32 35 36 36 39 41 42 47 53 55 56 57 55 53 54 55 56 57 58 61 62 63 64 64 65 65 64 66 64 63 62 62 63 65 69 71 70 67 66 64 62 61 63 68 69
35 39 43 44 46 46 47 48 50 51 51 51 52 56 57 59 61 61 62 63 63 63 63 64 65 65 65 65 66 65 65 65 65 66 67 66 69 69 69 68 67 66 67 66 68 69 68
36 40 43 46 48 50 52 53 54 55 56 56 58 59 60 62 63 62 62 63 64 65 66 65 68 67 67 68 69 69 68 68 69 68 67 66 66 64 68 69 68 70 71 70 71 71 69
41 43 45 47 49 52 55 57 59 60 62 64 66 66 67 67 68 69 70 69 68 69 68 70 72 72 70 70 71 72 71 70 73 71 69 71 72 72 77 73 75 78 76 71 70 69 69
23 27 30 34 37 40 44 49 54 56 57 59 61 64 67 65 67 69 68 70 70 71 73 72 71 75 76 76 77 77 74 73 73 71 67 68 69 68 66 70 71 74 70 70 70 66 66
31 34 37 41 44 48 53 55 54 53 55 54 54 55 57 59 56 55 57 60 58 60 59 62 64 63 67 72 75 76 75 71 70 70 72 69 64 66 69 68 63 69 69 64 61 65 57
36 39 42 45 49 52 56 62 62 58 56 55 55 54 51 51 49 49 46 48 50 49 46 48 50 52 53 55 58 60 64 65 67 72 75 63 62 55 58 60 63 63 60 70 70 67 69
39 41 44 48 50 53 57 61 64 58 57 56 55 53 52 51 47 45 45 44 44 45 43 40 40 42 45 44 42 42 43 44 48 52 56 59 64 58 58 52 49 42 36 40 45 45 43
41 44 47 50 54 57 60 66 65 65 62 57 52 52 50 48 43 42 42 42 41 41 38 36 37 39 39 40 40 40 40 40 39 39 42 46 52 59 71 77 80 68 67 62 53 49 50
44 47 49 52 55 58 63 68 70 67 57 49 42 41 41 40 36 39 40 40 39 37 34 34 34 36 39 40 41 38 37 39 39 39 38 42 47 49 50 54 60 66 72 67 60 56 53
Wind_Direction
89 97 104 112 121 134 149 158 165 168 168 169 182 186 182 181 183 182 183 182 183 181 177 173 172 173 191 205 221 236 260 274 286 291 297 306 308 310 311 312 313 313 311 306 299 295 291
75 85 100 109 124 140 158 175 189 197 202 202 201 203 194 192 193 193 195 193 194 192 189 190 189 194 208 220 231 245 258 268 274 282 288 293 298 304 305 307 308 307 306 303 297 292 288
73 70 87 109 119 151 187 211 216 220 223 222 215 212 208 206 207 209 206 205 205 207 207 207 206 207 216 230 239 249 255 262 269 276 283 291 296 298 302 304 305 304 302 300 296 290 286
231 232 222 195 186 256 260 253 243 234 231 224 220 217 216 219 220 221 220 220 220 224 224 224 224 224 227 236 245 254 262 267 274 281 287 292 294 296 299 300 301 300 299 297 294 291 287
247 240 242 235 258 266 275 274 262 248 242 236 229 224 222 224 230 228 228 232 234 236 240 242 244 243 245 249 255 260 266 271 276 281 286 289 292 295 295 295 296 295 296 295 293 289 287
251 246 245 247 251 261 266 265 267 261 251 246 238 234 233 233 235 236 237 238 241 244 249 252 254 256 257 258 263 266 269 273 278 280 284 287 289 292 290 292 293 293 293 294 292 288 285
252 253 251 252 252 256 260 266 272 271 265 258 251 246 240 240 241 240 242 245 247 249 252 255 257 262 263 265 268 269 272 275 277 281 283 285 287 288 290 290 292 292 293 293 287 288 285
262 254 255 256 258 259 264 267 272 273 272 269 265 260 255 249 248 249 251 253 256 255 255 260 263 267 268 269 270 272 274 275 278 281 282 283 286 285 288 289 291 291 291 290 287 285 284
271 261 258 260 262 264 265 269 274 275 273 271 269 268 265 263 261 261 262 264 264 265 262 263 268 269 271 273 274 276 277 279 280 281 281 283 284 286 287 288 289 288 290 289 288 286 287
269 272 264 259 261 265 266 267 270 273 273 272 271 269 267 266 266 267 268 269 270 271 269 267 268 273 274 275 275 276 276 278 279 281 282 283 286 285 285 286 286 286 287 287 287 287 288
264 266 270 269 263 261 261 263 267 269 271 271 271 269 269 268 269 269 270 270 271 273 274 274 275 274 274 274 275 276 278 280 281 282 282 285 283 281 282 284 282 285 286 285 285 287 287
268 266 265 266 269 267 265 265 262 262 264 264 265 269 269 268 269 270 270 270 272 274 278 280 280 279 278 276 276 276 278 279 280 280 281 282 281 281 283 282 283 284 285 285 285 287 286
265 266 267 267 267 266 268 269 269 267 266 266 264 263 264 266 266 267 268 270 272 272 279 280 280 278 277 277 276 277 276 278 280 280 279 278 278 280 280 281 282 283 284 285 286 288 289
266 266 266 266 267 266 266 265 267 268 269 270 271 269 268 269 270 269 269 270 269 272 274 275 277 276 275 276 276 277 277 277 277 278 279 279 278 278 280 280 280 281 282 283 287 286 288
271 269 269 268 267 268 269 270 270 269 268 267 269 271 272 272 271 271 271 271 272 274 275 274 274 274 274 275 275 275 275 275 275 274 276 278 278 278 277 277 278 279 282 284 284 283 283
274 270 274 272 270 270 269 270 271 271 271 269 267 269 271 271 272 271 271 272 273 274 273 272 272 273 273 273 273 273 274 276 274 273 273 274 276 276 278 278 278 280 280 280 281 282 282
274 275 273 275 274 270 271 271 271 271 271 272 271 269 269 270 271 272 273 273 273 273 274 274 274 274 274 274 274 274 273 273 274 276 276 275 274 275 275 277 278 278 280 281 281 280 284
274 275 279 277 274 274 276 274 272 271 271 273 273 272 272 272 272 272 272 271 271 272 272 273 273 272 271 272 272 273 274 275 276 275 276 277 277 276 277 276 277 277 280 282 281 282 281
281 280 284 284 277 280 284 281 276 275 271 272 275 276 277 276 274 272 272 272 272 271 271 270 270 271 271 271 272 273 274 274 273 273 274 274 274 277 278 279 280 280 280 281 283 281 281
280 280 284 285 285 283 281 282 282 277 274 274 275 273 274 273 274 273 272 273 272 272 272 272 271 270 269 270 270 272 273 272 271 271 271 272 273 276 278 280 278 278 279 280 281 281 285
282 283 285 286 286 287 286 284 281 280 278 279 279 277 276 275 274 272 271 271 269 268 269 271 271 270 271 270 269 270 271 270 270 272 272 273 275 276 276 276 276 277 278 279 279 280 280
293 291 289 288 288 288 287 286 284 282 279 277 276 275 275 275 275 273 271 271 272 273 273 270 270 270 270 270 271 271 271 271 272 271 272 274 274 275 275 279 278 277 276 276 277 281 283
298 299 301 302 300 298 296 293 289 287 285 283 280 276 274 274 274 274 274 274 273 272 271 272 272 271 271 271 272 272 272 274 275 276 275 275 275 275 275 275 275 275 278 278 279 280 282
345 344 344 343 339 334 324 312 303 297 292 289 286 284 282 281 279 277 276 275 273 272 271 270 272 272 273 273 272 272 271 272 273 275 273 271 273 276 278 278 280 283 283 286 282 278 278
345 344 343 341 340 340 341 337 325 311 300 295 292 289 285 283 283 283 283 280 280 278 277 275 275 274 272 273 272 272 272 270 270 268 267 269 270 272 266 271 271 273 279 282 276 280 280
341 340 339 338 339 339 337 338 330 317 307 302 297 293 290 288 284 282 279 280 282 282 283 284 284 281 279 277 275 274 273 272 266 259 264 260 259 265 269 269 274 270 268 268 273 274 278
338 337 336 336 335 335 335 334 334 322 314 304 298 294 290 289 286 282 280 278 279 280 281 279 279 281 285 288 290 291 288 286 281 277 271 264 258 253 246 252 256 263 272 280 272 264 259
332 332 331 332 332 332 332 335 331 325 316 307 299 292 288 284 283 282 279 278 279 281 285 286 285 283 282 283 284 286 288 289 289 289 284 275 269 261 257 258 262 264 271 272 270 267 271
330 329 328 328 328 329 331 332 333 328 319 313 308 301 295 291 288 282 281 280 280 284 287 291 289 291 294 293 291 289 288 288 289 285 282 273 268 269 266 265 264 265 269 273 268 272 297
Height
5787 5787 5787 5787 5788 5789 5791 5792 5793 5794 5795 5796 5797 5797 5798 5800 5801 5803 5804 5805 5807 5808 5809 5810 5811 5812 5813 5814 5815 5815 5815 5815 5815 5815 5814 5813 5813 5812 5812 5811 5811 5810 5809 5807 5806 5805 5804
5789 5789 5789 5789 5790 5790 5791 5792 5793 5794 5795 5796 5797 5797 5798 5799 5801 5802 5803 5804 5805 5806 5807 5808 5809 5810 5811 5812 5812 5812 5812 5812 5812 5812 5811 5810 5810 5809 5809 5808 5808 5806 5805 5804 5803 5802 5801
5789 5790 5790 5790 5791 5791 5791 5792 5792 5793 5794 5795 5796 5797 5797 5798 5799 5801 5802 5803 5804 5805 5805 5806 5807 5808 5809 5810 5809 5809 5809 5809 5809 5808 5808 5807 5806 5806 5805 5804 5803 5802 5801 5800 5798 5798 5796
5789 5790 5790 5790 5791 5791 5791 5791 5792 5792 5793 5794 5794 5795 5796 5797 5798 5800 5801 5801 5802 5803 5803 5804 5805 5805 5805 5805 5805 5805 5806 5806 5805 5805 5804 5803 5802 5802 5801 5800 5799 5797 5797 5795 5793 5792 5791
5789 5789 5790 5790 5791 5791 5791 5791 5792 5792 5792 5793 5793 5793 5794 5795 5797 5798 5798 5799 5800 5800 5801 5802 5802 5802 5802 5802 5802 5802 5802 5802 5801 5800 5799 5799 5798 5797 5796 5795 5794 5792 5791 5789 5787 5786 5786
5788 5788 5788 5789 5789 5790 5790 5791 5791 5791 5791 5791 5792 5792 5792 5793 5794 5795 5796 5796 5796 5797 5797 5798 5798 5799 5799 5799 5798 5798 5797 5797 5796 5795 5795 5793 5792 5792 5790 5789 5789 5787 5785 5784 5781 5780 5779
5786 5787 5787 5787 5788 5788 5789 5789 5789 5789 5790 5790 5790 5790 5790 5791 5791 5792 5793 5793 5794 5794 5793 5793 5794 5793 5793 5793 5793 5793 5792 5791 5791 5790 5788 5787 5787 5785 5784 5782 5782 5780 5778 5777 5775 5772 5771
5784 5784 5785 5785 5785 5786 5786 5786 5786 5787 5787 5787 5788 5787 5787 5788 5788 5788 5788 5788 5788 5789 5789 5788 5788 5788 5788 5787 5788 5787 5786 5786 5784 5783 5782 5781 5781 5777 5777 5776 5774 5772 5771 5770 5768 5766 5764
5781 5781 5781 5781 5782 5783 5782 5782 5782 5783 5784 5784 5784 5784 5784 5784 5784 5784 5784 5784 5783 5783 5783 5784 5782 5782 5782 5782 5781 5781 5780 5779 5778 5777 5774 5773 5774 5771 5769 5768 5766 5764 5764 5762 5760 5759 5757
5777 5778 5777 5777 5778 5778 5778 5778 5778 5778 5779 5779 5779 5780 5780 5780 5781 5780 5779 5779 5778 5777 5775 5779 5777 5777 5776 5775 5774 5773 5772 5772 5771 5769 5767 5766 5766 5764 5761 5761 5758 5756 5755 5753 5751 5749 5747
5773 5773 5773 5773 5773 5773 5773 5773 5773 5773 5773 5774 5774 5774 5774 5774 5774 5774 5774 5772 5771 5770 5767 5772 5771 5770 5769 5769 5768 5766 5765 5763 5763 5760 5760 5760 5757 5755 5754 5753 5750 5749 5746 5744 5742 5740 5737
5767 5768 5767 5768 5768 5768 5768 5768 5768 5768 5767 5767 5768 5768 5767 5767 5767 5767 5766 5765 5765 5765 5760 5763 5762 5762 5761 5760 5759 5758 5756 5755 5754 5752 5750 5750 5748 5747 5746 5743 5741 5739 5737 5733 5731 5730 5727
5760 5761 5762 5762 5761 5761 5762 5762 5761 5761 5761 5760 5760 5761 5760 5759 5759 5758 5758 5757 5757 5755 5756 5754 5754 5753 5752 5751 5749 5748 5748 5747 5744 5741 5741 5740 5739 5738 5736 5734 5732 5730 5727 5722 5719 5718 5716
5752 5753 5753 5754 5753 5753 5753 5753 5753 5753 5754 5753 5752 5752 5752 5751 5750 5750 5749 5749 5746 5747 5746 5745 5744 5742 5741 5741 5739 5738 5737 5737 5735 5731 5728 5727 5728 5728 5727 5724 5721 5718 5716 5713 5706 5703 5703
5744 5743 5744 5744 5745 5744 5744 5745 5744 5744 5744 5745 5743 5743 5742 5741 5741 5740 5739 5737 5737 5735 5736 5734 5732 5730 5730 5730 5728 5726 5725 5725 5723 5722 5718 5714 5714 5715 5714 5712 5710 5707 5703 5701 5692 5689 5687
5734 5734 5734 5734 5734 5733 5733 5734 5734 5734 5733 5733 5733 5732 5730 5729 5728 5728 5727 5727 5725 5724 5722 5720 5720 5718 5717 5716 5715 5713 5712 5712 5710 5708 5705 5703 5699 5700 5699 5697 5695 5693 5690 5685 5680 5673 5668
5725 5725 5725 5724 5723 5722 5721 5722 5722 5722 5720 5719 5721 5720 5718 5717 5715 5714 5713 5712 5711 5710 5708 5706 5706 5704 5703 5700 5699 5699 5699 5698 5694 5692 5690 5687 5685 5690 5685 5684 5682 5677 5673 5670 5665 5659 5653
5716 5716 5716 5714 5713 5712 5711 5710 5709 5709 5709 5707 5706 5707 5705 5703 5702 5699 5699 5697 5696 5693 5693 5690 5690 5688 5686 5684 5682 5682 5683 5683 5680 5677 5674 5670 5665 5669 5671 5667 5664 5660 5659 5656 5648 5647 5640
5709 5708 5707 5706 5704 5702 5700 5698 5696 5695 5695 5695 5692 5692 5690 5688 5685 5684 5682 5680 5678 5677 5676 5675 5674 5670 5668 5667 5663 5667 5667 5668 5664 5663 5659 5655 5648 5647 5651 5651 5648 5644 5643 5638 5633 5627 5622
5702 5701 5699 5697 5694 5691 5689 5687 5684 5682 5680 5680 5678 5677 5676 5673 5670 5667 5665 5664 5661 5658 5657 5655 5654 5652 5649 5651 5649 5647 5650 5650 5647 5645 5641 5635 5632 5630 5631 5633 5627 5625 5625 5624 5617 5606 5605
5695 5693 5690 5687 5684 5681 5678 5675 5672 5670 5667 5664 5661 5659 5657 5656 5654 5650 5648 5645 5642 5641 5640 5639 5636 5633 5631 5631 5631 5630 5631 5630 5630 5627 5623 5617 5612 5611 5613 5616 5607 5607 5607 5609 5600 5596 5589
5686 5683 5680 5677 5673 5669 5665 5661 5659 5653 5650 5649 5645 5643 5641 5638 5634 5631 5629 5626 5622 5621 5621 5620 5615 5616 5615 5612 5610 5610 5610 5610 5611 5612 5606 5602 5594 5593 5588 5596 5590 5584 5587 5588 5583 5581 5576
5677 5673 5669 5664 5660 5655 5649 5645 5641 5637 5633 5629 5625 5623 5621 5619 5614 5610 5607 5605 5605 5602 5603 5597 5596 5596 5595 5593 5591 5591 5590 5591 5589 5590 5591 5583 5580 5577 5569 5580 5570 5559 5570 5571 5567 5566 5559
5669 5665 5660 5655 5650 5644 5637 5630 5625 5619 5615 5610 5606 5601 5598 5597 5590 5586 5585 5582 5582 5581 5581 5579 5573 5572 5571 5570 5570 5570 5571 5571 5570 5573 5571 5565 5563 5557 5552 5556 5544 5550 5548 5544 5543 5540 5538
5662 5657 5652 5647 5640 5634 5627 5619 5611 5604 5597 5592 5585 5581 5578 5576 5571 5566 5562 5559 5560 5558 5559 5556 5554 5551 5550 5547 5545 5546 5549 5549 5550 5548 5548 5546 5544 5538 5536 5534 5534 5532 5527 5527 5521 5521 5518
5656 5651 5645 5639 5632 5625 5617 5608 5598 5588 5581 5574 5568 5563 5559 5556 5554 5550 5547 5542 5541 5542 5544 5540 5535 5527 5528 5527 5527 5526 5526 5523 5527 5527 5527 5529 5527 5528 5522 5518 5515 5504 5505 5501 5501 5499 5499
5649 5644 5638 5631 5624 5617 5609 5599 5587 5576 5567 5559 5550 5545 5540 5537 5535 5531 5530 5529 5529 5527 5529 5529 5527 5520 5515 5512 5511 5510 5509 5504 5503 5500 5499 5501 5506 5505 5501 5497 5494 5491 5485 5487 5484 5481 5476
5642 5636 5629 5622 5614 5605 5596 5586 5575 5562 5549 5539 5531 5525 5522 5521 5519 5515 5514 5514 5514 5513 5514 5514 5511 5506 5506 5503 5500 5497 5495 5491 5489 5483 5477 5478 5480 5482 5480 5478 5478 5478 5473 5474 5467 5460 5459
5633 5627 5620 5612 5604 5595 5585 5573 5558 5545 5532 5524 5518 5510 5506 5505 5506 5501 5500 5499 5500 5502 5502 5500 5495 5491 5489 5488 5486 5486 5484 5477 5475 5472 5468 5465 5465 5463 5463 5459 5457 5454 5457 5457 5452 5450 5446